Location: ?????
(33.6267°N, 35.4675°E)
Time: 21:11:14
(UTC+00:00)

ATLAS 5 CENTAUR R/B - Visible Passes

Search period start: 21 February 2020 00:00
Search period end: 02 March 2020 00:00
Orbit: 550 x 1108 km, 63.4° (Epoch: 09 February)

Date Brightness Start Highest point End Pass type
(mag) Time Alt. Az. Time Alt. Az. Time Alt. Az.
24 Feb 4.0 03:45:22 10° S 03:48:45 26° ESE 03:52:18 10° NE visible
25 Feb 4.1 03:26:24 10° SSE 03:29:38 23° ESE 03:33:02 10° ENE visible
26 Feb 4.1 03:07:25 10° SSE 03:10:31 21° ESE 03:13:45 10° ENE visible
27 Feb 4.2 02:48:29 10° SSE 02:51:25 19° ESE 02:54:28 10° ENE visible
28 Feb 4.2 02:29:34 10° SSE 02:32:18 18° ESE 02:35:09 10° ENE visible
29 Feb 4.2 02:10:41 10° SSE 02:13:12 16° ESE 02:15:48 10° ENE visible
01 Mar 4.2 01:51:50 10° SE 01:54:05 15° ESE 01:56:25 10° ENE visible
01 Mar 2.1 03:34:26 10° WSW 03:38:12 36° NW 03:42:19 10° NNE visible
